| time (UTC) | temp F | wind direction | speed MPH | gust MPH | rain 1hr in | rain 24hr in | rain mn in | humidity % | barometer mb |
| 20260506141002 | 53 | 338 | 6.0 | 8.0 | 0.00 | 0.38 | 0.02 | 60 | 1015.8 |
| 20260506140023 | 52 | 315 | 7.0 | 9.0 | 0.00 | 0.43 | 0.02 | 68 | 1015.8 |
| 20260506135002 | 52 | 338 | 7.0 | 9.0 | 0.00 | 0.43 | 0.02 | 66 | 1015.8 |
| 20260506134002 | 51 | 315 | 8.0 | 9.0 | 0.00 | 0.43 | 0.02 | 70 | 1015.6 |
| 20260506133002 | 51 | 338 | 9.0 | 10.0 | 0.00 | 0.43 | 0.02 | 73 | 1015.2 |
| 20260506132002 | 50 | 315 | 4.0 | 7.0 | 0.00 | 0.43 | 0.02 | 77 | 1015.2 |
| 20260506131002 | 49 | 315 | 5.0 | 8.0 | 0.00 | 0.43 | 0.02 | 81 | 1015.1 |
| 20260506130002 | 48 | 315 | 2.0 | 5.0 | 0.00 | 0.44 | 0.02 | 85 | 1014.9 |
| 20260506125022 | 48 | 293 | 4.0 | 5.0 | 0.00 | 0.44 | 0.02 | 85 | 1014.8 |
| 20260506124002 | 47 | 293 | 3.0 | 4.0 | 0.00 | 0.44 | 0.02 | 87 | 1014.7 |
| 20260506123002 | 47 | 248 | 2.0 | 2.0 | 0.00 | 0.44 | 0.02 | 88 | 1014.6 |
| 20260506122002 | 46 | 270 | 2.0 | 3.0 | 0.00 | 0.44 | 0.02 | 89 | 1014.4 |
| 20260506121002 | 46 | 225 | 2.0 | 2.0 | 0.00 | 0.44 | 0.02 | 88 | 1013.8 |
| 20260506120002 | 46 | 203 | 3.0 | 4.0 | 0.00 | 0.44 | 0.02 | 87 | 1013.5 |
| 20260506115002 | 46 | 158 | 1.0 | 2.0 | 0.00 | 0.44 | 0.02 | 86 | 1013.3 |
| 20260506114022 | 46 | 248 | 2.0 | 2.0 | 0.00 | 0.44 | 0.02 | 86 | 1013.4 |
| 20260506113002 | 46 | 293 | 1.0 | 1.0 | 0.00 | 0.44 | 0.02 | 86 | 1013.4 |
| 20260506112022 | 46 | 293 | 2.0 | 3.0 | 0.00 | 0.44 | 0.02 | 86 | 1013.6 |
| 20260506111002 | 46 | 293 | 5.0 | 8.0 | 0.00 | 0.44 | 0.02 | 85 | 1013.4 |
| 20260506110002 | 46 | 293 | 4.0 | 6.0 | 0.00 | 0.44 | 0.02 | 84 | 1013.9 |
| 20260506105004 | 46 | 293 | 6.0 | 9.0 | 0.00 | 0.44 | 0.02 | 82 | 1014.2 |
| 20260506104008 | 46 | 315 | 5.0 | 5.0 | 0.00 | 0.44 | 0.02 | 82 | 1014.1 |
| 20260506103004 | 46 | 293 | 3.0 | 6.0 | 0.00 | 0.44 | 0.02 | 89 | 1014.2 |
| 20260506102003 | 46 | 293 | 8.0 | 10.0 | 0.00 | 0.44 | 0.02 | 90 | 1014.5 |
| 20260506101004 | 46 | 293 | 4.0 | 7.0 | 0.00 | 0.44 | 0.02 | 90 | 1014.0 |
| 20260506100008 | 45 | 293 | 2.0 | 4.0 | 0.00 | 0.44 | 0.02 | 91 | 1013.4 |
| 20260506095004 | 45 | 315 | 3.0 | 4.0 | 0.00 | 0.44 | 0.02 | 91 | 1012.8 |
| 20260506094004 | 45 | 338 | 2.0 | 3.0 | 0.00 | 0.44 | 0.02 | 91 | 1012.2 |
| 20260506093004 | 45 | 203 | 2.0 | 3.0 | 0.00 | 0.44 | 0.02 | 91 | 1012.5 |
| 20260506092003 | 45 | 0.0 | 1.0 | 0.00 | 0.44 | 0.02 | 91 | 1012.3 | |
| 20260506091004 | 46 | 0.0 | 0.0 | 0.00 | 0.44 | 0.02 | 91 | 1012.5 | |
| 20260506090044 | 45 | 180 | 2.0 | 2.0 | 0.00 | 0.44 | 0.02 | 90 | 1012.5 |
| 20260506085003 | 45 | 0.0 | 1.0 | 0.00 | 0.49 | 0.02 | 90 | 1012.4 | |
| 20260506084004 | 45 | 180 | 1.0 | 1.0 | 0.00 | 0.49 | 0.02 | 89 | 1012.5 |
| 20260506083045 | 45 | 0.0 | 1.0 | 0.00 | 0.49 | 0.02 | 89 | 1012.5 | |
| 20260506082004 | 45 | 180 | 2.0 | 2.0 | 0.00 | 0.49 | 0.02 | 88 | 1012.5 |
| 20260506081005 | 46 | 113 | 1.0 | 2.0 | 0.00 | 0.49 | 0.02 | 87 | 1012.2 |
| 20260506073003 | 45 | 113 | 2.0 | 3.0 | 0.01 | 0.76 | 0.02 | 86 | 1011.5 |
| 20260506072003 | 46 | 68 | 2.0 | 2.0 | 0.01 | 0.76 | 0.02 | 85 | 1011.7 |
| 20260506071003 | 46 | 68 | 2.0 | 4.0 | 0.02 | 0.76 | 0.02 | 84 | 1011.7 |
| 20260506062003 | 47 | 0 | 4.0 | 8.0 | 0.01 | 1.53 | 0.01 | 81 | 1012.4 |
| 20260506061024 | 47 | 0 | 5.0 | 7.0 | 0.00 | 1.52 | 0.00 | 80 | 1012.6 |
| 20260506051003 | 48 | 0 | 6.0 | 10.0 | 0.00 | 1.55 | 0.00 | 80 | 1012.2 |
| 20260506050103 | 49 | 23 | 5.0 | 8.0 | 0.00 | 1.55 | 0.00 | 80 | 1011.9 |
| 20260506045004 | 49 | 0 | 10.0 | 14.0 | 0.00 | 1.55 | 1.55 | 82 | 1012.0 |
| 20260506044004 | 48 | 338 | 16.0 | 20.0 | 0.00 | 1.55 | 1.55 | 91 | 1011.7 |
| 20260506043004 | 48 | 338 | 12.0 | 15.0 | 0.00 | 1.55 | 1.55 | 94 | 1011.4 |
| 20260506042004 | 49 | 270 | 4.0 | 4.0 | 0.00 | 1.55 | 1.55 | 95 | 1011.3 |
| 20260506041004 | 49 | 270 | 5.0 | 6.0 | 0.00 | 1.55 | 1.55 | 95 | 1011.4 |
| 20260506040004 | 49 | 203 | 3.0 | 4.0 | 0.00 | 1.55 | 1.55 | 95 | 1011.1 |
| 20260506035024 | 49 | 180 | 1.0 | 2.0 | 0.00 | 1.55 | 1.55 | 95 | 1011.0 |
| 20260506034004 | 49 | 180 | 2.0 | 2.0 | 0.00 | 1.55 | 1.55 | 95 | 1011.2 |
| 20260506033005 | 49 | 180 | 1.0 | 2.0 | 0.00 | 1.55 | 1.55 | 95 | 1011.0 |
| 20260506032004 | 49 | 180 | 3.0 | 3.0 | 0.00 | 1.55 | 1.55 | 94 | 1010.6 |
| 20260506031004 | 49 | 180 | 1.0 | 2.0 | 0.00 | 1.55 | 1.55 | 94 | 1010.6 |
| 20260506030008 | 49 | 203 | 1.0 | 1.0 | 0.00 | 1.55 | 1.55 | 94 | 1010.2 |
| 20260506025003 | 49 | 203 | 1.0 | 2.0 | 0.00 | 1.55 | 1.55 | 94 | 1010.3 |
| 20260506024004 | 49 | 203 | 2.0 | 2.0 | 0.00 | 1.55 | 1.55 | 94 | 1009.9 |
| 20260506023004 | 49 | 0.0 | 0.0 | 0.00 | 1.55 | 1.55 | 93 | 1009.6 | |
| 20260506022003 | 49 | 0.0 | 0.0 | 0.00 | 1.55 | 1.55 | 93 | 1009.6 | |
| 20260506021004 | 49 | 0.0 | 0.0 | 0.00 | 1.55 | 1.55 | 92 | 1009.4 | |
| 20260506020004 | 49 | 45 | 1.0 | 1.0 | 0.00 | 1.55 | 1.55 | 92 | 1009.4 |
| 20260506015004 | 49 | 0.0 | 1.0 | 0.00 | 1.55 | 1.55 | 90 | 1009.1 | |
| 20260506014004 | 49 | 0.0 | 1.0 | 0.00 | 1.55 | 1.55 | 89 | 1009.1 | |
| 20260506013004 | 50 | 0.0 | 1.0 | 0.00 | 1.55 | 1.55 | 87 | 1009.0 | |
| 20260506012003 | 51 | 0.0 | 0.0 | 0.00 | 1.55 | 1.55 | 85 | 1008.9 | |
| 20260506011004 | 51 | 0.0 | 0.0 | 0.00 | 1.55 | 1.55 | 83 | 1009.0 | |
| 20260506010005 | 51 | 23 | 2.0 | 3.0 | 0.00 | 1.55 | 1.55 | 82 | 1008.9 |
| 20260506005004 | 51 | 23 | 2.0 | 2.0 | 0.00 | 1.55 | 1.55 | 82 | 1008.7 |
| 20260506004003 | 52 | 338 | 3.0 | 3.0 | 0.00 | 1.55 | 1.55 | 82 | 1008.7 |
| 20260506003003 | 52 | 315 | 2.0 | 3.0 | 0.00 | 1.55 | 1.55 | 82 | 1008.9 |
| 20260506002024 | 52 | 338 | 2.0 | 2.0 | 0.00 | 1.55 | 1.55 | 81 | 1008.8 |
| 20260506001003 | 52 | 23 | 2.0 | 4.0 | 0.00 | 1.55 | 1.55 | 82 | 1008.5 |
| 20260506000009 | 52 | 0 | 2.0 | 4.0 | 0.00 | 1.55 | 1.55 | 80 | 1008.4 |
| 20260505235003 | 52 | 338 | 3.0 | 4.0 | 0.00 | 1.55 | 1.55 | 80 | 1008.4 |
| 20260505234004 | 52 | 0 | 3.0 | 4.0 | 0.00 | 1.55 | 1.55 | 80 | 1008.2 |
| 20260505233003 | 52 | 45 | 2.0 | 3.0 | 0.00 | 1.55 | 1.55 | 82 | 1008.5 |
| 20260505232003 | 52 | 45 | 3.0 | 4.0 | 0.00 | 1.55 | 1.55 | 81 | 1008.4 |
| 20260505231004 | 51 | 0 | 2.0 | 4.0 | 0.00 | 1.55 | 1.55 | 81 | 1008.6 |
| 20260505230009 | 51 | 23 | 1.0 | 3.0 | 0.00 | 1.55 | 1.55 | 81 | 1008.5 |
| 20260505225003 | 51 | 23 | 2.0 | 4.0 | 0.00 | 1.55 | 1.55 | 81 | 1008.6 |
| 20260505224003 | 51 | 23 | 2.0 | 4.0 | 0.00 | 1.55 | 1.55 | 82 | 1008.4 |
| 20260505223003 | 51 | 68 | 1.0 | 2.0 | 0.00 | 1.55 | 1.55 | 81 | 1008.3 |
| 20260505222003 | 51 | 23 | 2.0 | 3.0 | 0.00 | 1.55 | 1.55 | 81 | 1008.5 |
| 20260505221003 | 51 | 23 | 3.0 | 4.0 | 0.00 | 1.55 | 1.55 | 81 | 1008.6 |
| 20260505220005 | 51 | 23 | 5.0 | 7.0 | 0.00 | 1.55 | 1.55 | 82 | 1008.4 |
| 20260505215003 | 51 | 45 | 4.0 | 5.0 | 0.00 | 1.55 | 1.55 | 82 | 1008.4 |
| 20260505214003 | 51 | 0 | 4.0 | 5.0 | 0.00 | 1.55 | 1.55 | 83 | 1008.5 |
| 20260505213003 | 51 | 23 | 3.0 | 4.0 | 0.00 | 1.55 | 1.55 | 84 | 1008.6 |
| 20260505212003 | 51 | 45 | 3.0 | 5.0 | 0.00 | 1.55 | 1.55 | 86 | 1008.3 |
| 20260505211003 | 50 | 45 | 2.0 | 4.0 | 0.00 | 1.55 | 1.55 | 85 | 1008.5 |
| 20260505210004 | 50 | 45 | 3.0 | 4.0 | 0.01 | 1.55 | 1.55 | 85 | 1008.6 |
| 20260505205004 | 50 | 45 | 3.0 | 5.0 | 0.01 | 1.55 | 1.55 | 85 | 1008.5 |
| 20260505204003 | 49 | 68 | 2.0 | 3.0 | 0.01 | 1.55 | 1.55 | 87 | 1008.4 |
| 20260505203003 | 49 | 0 | 5.0 | 7.0 | 0.01 | 1.55 | 1.55 | 87 | 1008.6 |
| 20260505202004 | 49 | 45 | 1.0 | 2.0 | 0.01 | 1.55 | 1.55 | 87 | 1008.5 |
| 20260505201023 | 48 | 68 | 2.0 | 4.0 | 0.02 | 1.55 | 1.55 | 87 | 1008.4 |
| 20260505200003 | 48 | 68 | 3.0 | 5.0 | 0.02 | 1.54 | 1.54 | 87 | 1008.5 |
| 20260505195043 | 48 | 0.0 | 2.0 | 0.03 | 1.54 | 1.54 | 88 | 1008.5 | |
| 20260505194003 | 47 | 68 | 6.0 | 8.0 | 0.03 | 1.54 | 1.54 | 90 | 1008.2 |
| 20260505193003 | 48 | 90 | 3.0 | 4.0 | 0.03 | 1.54 | 1.54 | 92 | 1008.4 |
| 20260505192003 | 48 | 68 | 1.0 | 2.0 | 0.04 | 1.54 | 1.54 | 92 | 1008.6 |
| 20260505191003 | 47 | 113 | 2.0 | 3.0 | 0.04 | 1.53 | 1.53 | 91 | 1008.6 |
| 20260505190003 | 47 | 90 | 2.0 | 2.0 | 0.03 | 1.52 | 1.52 | 91 | 1008.4 |
| 20260505185003 | 47 | 45 | 2.0 | 4.0 | 0.02 | 1.51 | 1.51 | 91 | 1008.8 |
| 20260505184003 | 47 | 90 | 2.0 | 4.0 | 0.02 | 1.51 | 1.51 | 91 | 1008.8 |
| 20260505183003 | 47 | 90 | 2.0 | 2.0 | 0.02 | 1.51 | 1.51 | 91 | 1008.9 |
| 20260505182003 | 47 | 90 | 3.0 | 6.0 | 0.01 | 1.50 | 1.50 | 90 | 1009.3 |
| 20260505181002 | 47 | 90 | 3.0 | 5.0 | 0.01 | 1.49 | 1.49 | 90 | 1009.6 |
| 20260505180004 | 47 | 68 | 3.0 | 5.0 | 0.03 | 1.49 | 1.49 | 90 | 1009.5 |
| 20260505175003 | 47 | 68 | 6.0 | 10.0 | 0.04 | 1.49 | 1.49 | 91 | 1009.8 |
| 20260505174003 | 47 | 68 | 3.0 | 5.0 | 0.10 | 1.49 | 1.49 | 91 | 1009.8 |
| 20260505173003 | 47 | 90 | 2.0 | 4.0 | 0.14 | 1.49 | 1.49 | 91 | 1009.7 |
| 20260505172003 | 47 | 68 | 3.0 | 5.0 | 0.18 | 1.49 | 1.49 | 91 | 1009.5 |
| 20260505171002 | 46 | 90 | 8.0 | 11.0 | 0.20 | 1.48 | 1.48 | 90 | 1009.1 |
| 20260505170008 | 46 | 90 | 5.0 | 7.0 | 0.18 | 1.46 | 1.46 | 89 | 1009.5 |
| 20260505165002 | 46 | 68 | 9.0 | 12.0 | 0.17 | 1.45 | 1.45 | 89 | 1009.6 |
| 20260505164002 | 46 | 45 | 6.0 | 10.0 | 0.12 | 1.39 | 1.39 | 89 | 1009.4 |
| 20260505163003 | 47 | 45 | 4.0 | 5.0 | 0.08 | 1.35 | 1.35 | 89 | 1009.3 |
| 20260505162003 | 47 | 68 | 5.0 | 11.0 | 0.04 | 1.31 | 1.31 | 88 | 1009.5 |
| 20260505161002 | 48 | 45 | 7.0 | 9.0 | 0.01 | 1.28 | 1.28 | 88 | 1009.8 |
| 20260505153002 | 48 | 45 | 6.0 | 10.0 | 0.03 | 1.27 | 1.27 | 88 | 1009.3 |
| 20260505152023 | 48 | 45 | 3.0 | 5.0 | 0.05 | 1.27 | 1.27 | 88 | 1009.2 |
| 20260505151003 | 48 | 23 | 6.0 | 9.0 | 0.06 | 1.27 | 1.27 | 88 | 1008.8 |